Location: Rometta
(44.2000°N, 10.0500°E)
Time: 08:49:37
(UTC+00:00)

Cosmos 923 Rocket - Visible Passes

Search period start: 09 May 2021 00:00
Search period end: 19 May 2021 00:00
Orbit: 759 x 785 km, 74.0° (Epoch: 08 May)

Date Brightness Start Highest point End Pass type
(mag) Time Alt. Az. Time Alt. Az. Time Alt. Az.
09 May 5.5 20:34:01 10° N 20:38:14 24° ENE 20:40:17 19° E visible
09 May 4.4 22:15:34 10° NNW 22:20:38 51° WSW 22:20:38 51° WSW visible
10 May 6.0 19:58:46 10° NNE 20:01:56 16° NE 20:05:03 10° E visible
10 May 3.9 21:39:29 10° NNW 21:44:47 84° WSW 21:45:24 70° S visible
10 May 6.4 23:25:14 10° W 23:25:44 10° W 23:25:44 10° W visible
11 May 6.3 19:24:45 10° NE 19:25:31 10° NE 19:26:17 10° NE visible
11 May 4.2 21:03:35 10° NNW 21:08:48 61° ENE 21:10:12 45° ESE visible
11 May 5.9 22:46:56 10° NW 22:50:25 18° W 22:50:32 18° W visible
12 May 4.8 20:27:49 10° N 20:32:44 38° ENE 20:35:01 26° ESE visible
12 May 5.2 22:10:13 10° NW 22:14:43 29° W 22:15:22 28° WSW visible
13 May 5.4 19:52:15 10° N 19:56:34 25° ENE 19:59:52 14° ESE visible
13 May 4.6 21:33:53 10° NNW 21:38:56 48° WSW 21:40:13 40° SW visible
14 May 5.9 19:16:56 10° NNE 19:20:16 17° NE 19:23:36 10° E visible
14 May 4.0 20:57:47 10° NNW 21:03:04 79° WSW 21:05:06 39° S visible
15 May 4.1 20:21:51 10° NNW 20:27:07 65° ENE 20:30:00 27° SE visible
15 May 6.0 22:05:22 10° NW 22:08:40 17° W 22:10:21 15° WSW visible
16 May 4.7 19:46:04 10° N 19:51:03 40° ENE 19:54:56 16° SE visible
16 May 5.5 21:28:34 10° NW 21:32:59 28° W 21:35:18 20° SW visible
17 May 5.3 19:10:28 10° N 19:14:53 26° ENE 19:19:18 10° ESE visible
17 May 4.8 20:52:12 10° NNW 20:57:13 45° WSW 21:00:16 22° SSW visible
18 May 4.1 20:16:05 10° NNW 20:21:22 75° WSW 20:25:16 18° S visible
